RYR8NZ EDDB-EIDW

Flight info

Callsign RYR8NZ
Flight time N/A
Altitude 24000
Route SUKIP4B/06L SUKIP Y206 BUREL P203 HLZ/N0452F360 L980 SAS DCT RAVLO Y70 OTBED L60 PENIL UL28 LELDO M145 BAGSO BAGSO4L
Aircraft B738/M-SDE2E3FGHIRWXY/LB1

Departure

Time 2026-05-06 19:26
Airport Berlin Brandenburg Airport (EDDB)

Arrival

Time N/A
Airport Dublin Airport (EIDW)
Time Latitude Longitude Altitude Speed Heading
2026-05-06 19:03 52.36822 13.50857 154 ft 0 kts 159°
2026-05-06 19:13 52.36832 13.50850 154 ft 4 kts 159°
2026-05-06 19:14 52.36857 13.50834 154 ft 3 kts 159°
2026-05-06 19:14 52.36879 13.50824 154 ft 4 kts 195°
2026-05-06 19:14 52.36896 13.50847 154 ft 4 kts 246°
2026-05-06 19:14 52.36902 13.50868 154 ft 1 kts 249°
2026-05-06 19:15 52.36902 13.50870 154 ft 0 kts 249°
2026-05-06 19:18 52.36902 13.50869 154 ft 1 kts 249°
2026-05-06 19:18 52.36885 13.50798 154 ft 11 kts 249°
2026-05-06 19:18 52.36856 13.50690 154 ft 9 kts 247°
2026-05-06 19:19 52.36835 13.50590 154 ft 9 kts 249°
2026-05-06 19:19 52.36812 13.50493 154 ft 9 kts 249°
2026-05-06 19:19 52.36790 13.50398 154 ft 9 kts 249°
2026-05-06 19:19 52.36769 13.50307 154 ft 9 kts 249°
2026-05-06 19:20 52.36744 13.50206 154 ft 11 kts 247°
2026-05-06 19:20 52.36733 13.50091 154 ft 10 kts 289°
2026-05-06 19:20 52.36778 13.50002 154 ft 10 kts 296°
2026-05-06 19:20 52.36765 13.49894 154 ft 10 kts 248°
2026-05-06 19:21 52.36741 13.49785 154 ft 12 kts 250°
2026-05-06 19:21 52.36703 13.49625 154 ft 16 kts 249°
2026-05-06 19:21 52.36664 13.49459 154 ft 15 kts 249°
2026-05-06 19:21 52.36626 13.49299 154 ft 15 kts 249°
2026-05-06 19:22 52.36588 13.49148 153 ft 14 kts 246°
2026-05-06 19:22 52.36554 13.49002 153 ft 13 kts 250°
2026-05-06 19:22 52.36532 13.48911 154 ft 10 kts 247°
2026-05-06 19:22 52.36532 13.48806 153 ft 10 kts 304°
2026-05-06 19:23 52.36578 13.48734 153 ft 9 kts 282°
2026-05-06 19:23 52.36563 13.48631 153 ft 9 kts 249°
2026-05-06 19:23 52.36539 13.48532 153 ft 10 kts 249°
2026-05-06 19:23 52.36520 13.48409 153 ft 11 kts 277°
2026-05-06 19:24 52.36549 13.48353 153 ft 0 kts 334°
2026-05-06 19:25 52.36583 13.48328 153 ft 12 kts 339°
2026-05-06 19:25 52.36668 13.48280 153 ft 13 kts 345°
2026-05-06 19:25 52.36735 13.48322 153 ft 11 kts 68°
2026-05-06 19:26 52.36739 13.48338 154 ft 9 kts 66°
2026-05-06 19:26 52.36880 13.48986 154 ft 109 kts 69°
2026-05-06 19:26 52.37267 13.50551 282 ft 179 kts 66°
2026-05-06 19:26 52.37743 13.52420 1507 ft 156 kts 68°
2026-05-06 19:27 52.38047 13.53830 2260 ft 131 kts 67°
2026-05-06 19:27 52.38442 13.55430 2744 ft 174 kts 69°
2026-05-06 19:27 52.38898 13.57496 3054 ft 210 kts 68°
2026-05-06 19:27 52.39473 13.59867 3354 ft 235 kts 68°
2026-05-06 19:28 52.40243 13.62303 3887 ft 246 kts 47°
2026-05-06 19:28 52.41687 13.63761 4588 ft 247 kts 18°
2026-05-06 19:28 52.43380 13.64732 5071 ft 267 kts 17°
2026-05-06 19:28 52.45143 13.65764 5869 ft 276 kts 17°
2026-05-06 19:29 52.46988 13.66779 6850 ft 277 kts
2026-05-06 19:29 52.48874 13.66641 7682 ft 274 kts 335°
2026-05-06 19:29 52.50429 13.64898 8563 ft 272 kts 308°
2026-05-06 19:29 52.51380 13.62279 9440 ft 272 kts 286°
2026-05-06 19:30 52.51673 13.59230 10262 ft 275 kts 268°
2026-05-06 19:30 52.51597 13.55967 10548 ft 300 kts 265°
2026-05-06 19:30 52.51430 13.52401 10747 ft 326 kts 264°
2026-05-06 19:30 52.51234 13.48592 11199 ft 341 kts 264°
2026-05-06 19:31 52.51034 13.44670 11933 ft 347 kts 264°
2026-05-06 19:31 52.50838 13.40707 12764 ft 350 kts 264°
2026-05-06 19:31 52.50454 13.32621 14262 ft 359 kts 264°
2026-05-06 19:32 52.50263 13.28518 14970 ft 363 kts 264°
2026-05-06 19:32 52.50070 13.24361 15644 ft 367 kts 264°
2026-05-06 19:32 52.49875 13.20162 16364 ft 370 kts 264°
2026-05-06 19:32 52.49679 13.15943 17082 ft 374 kts 264°
2026-05-06 19:33 52.49479 13.11662 17772 ft 377 kts 264°
2026-05-06 19:33 52.49276 13.07342 18408 ft 381 kts 264°
2026-05-06 19:33 52.49071 13.03003 19051 ft 383 kts 264°
2026-05-06 19:33 52.48862 12.98641 19689 ft 385 kts 263°
2026-05-06 19:34 52.48650 12.94239 20297 ft 388 kts 263°
2026-05-06 19:34 52.48438 12.89862 20870 ft 390 kts 263°
2026-05-06 19:34 52.48220 12.85410 21444 ft 393 kts 263°
2026-05-06 19:34 52.47996 12.80866 22036 ft 395 kts 263°
2026-05-06 19:35 52.47775 12.76420 22586 ft 398 kts 263°
2026-05-06 19:35 52.47548 12.71875 23134 ft 401 kts 263°
2026-05-06 19:35 52.47317 12.67309 23615 ft 403 kts 263°
2026-05-06 19:35 52.47083 12.62710 23805 ft 405 kts 263°
2026-05-06 19:36 52.46849 12.58121 23822 ft 404 kts 263°
2026-05-06 19:36 52.46611 12.53517 23830 ft 406 kts 263°
2026-05-06 19:36 52.46371 12.48892 23842 ft 404 kts 263°
2026-05-06 19:36 52.46132 12.44310 23838 ft 403 kts 263°
2026-05-06 19:37 52.45890 12.39732 23836 ft 403 kts 263°
2026-05-06 19:37 52.45647 12.35158 23831 ft 402 kts 263°
2026-05-06 19:37 52.45403 12.30604 23832 ft 402 kts 263°
2026-05-06 19:37 52.45156 12.26031 23835 ft 402 kts 263°
2026-05-06 19:38 52.44908 12.21474 23838 ft 402 kts 263°
2026-05-06 19:38 52.44657 12.16897 23835 ft 403 kts 262°
2026-05-06 19:38 52.44405 12.12321 23841 ft 403 kts 262°
2026-05-06 19:38 52.44150 12.07730 23835 ft 404 kts 262°
2026-05-06 19:39 52.43894 12.03152 23829 ft 404 kts 262°
2026-05-06 19:39 52.43635 11.98561 23846 ft 405 kts 263°
2026-05-06 19:39 52.43374 11.93963 23840 ft 406 kts 263°
2026-05-06 19:39 52.43111 11.89354 23841 ft 407 kts 263°
2026-05-06 19:40 52.42846 11.84744 23836 ft 407 kts 263°
2026-05-06 19:40 52.42579 11.80134 23835 ft 408 kts 263°
2026-05-06 19:40 52.42309 11.75496 23835 ft 408 kts 262°
2026-05-06 19:40 52.42038 11.70878 23835 ft 407 kts 262°
2026-05-06 19:41 52.41765 11.66259 23839 ft 407 kts 262°
2026-05-06 19:41 52.41491 11.61645 23833 ft 406 kts 262°
2026-05-06 19:41 52.41216 11.57053 23833 ft 405 kts 262°
2026-05-06 19:41 52.40939 11.52459 23836 ft 405 kts 262°
2026-05-06 19:42 52.40664 11.47930 23849 ft 404 kts 262°
2026-05-06 19:42 52.40383 11.43334 23833 ft 406 kts 262°
2026-05-06 19:42 52.40100 11.38733 23836 ft 408 kts 262°
2026-05-06 19:42 52.39814 11.34110 23840 ft 409 kts 262°
2026-05-06 19:43 52.39525 11.29470 23833 ft 410 kts 262°
2026-05-06 19:43 52.39233 11.24806 23833 ft 411 kts 262°
2026-05-06 19:43 52.38940 11.20153 23833 ft 412 kts 262°
2026-05-06 19:43 52.38643 11.15484 23838 ft 412 kts 262°
2026-05-06 19:44 52.38346 11.10819 23837 ft 412 kts 262°
2026-05-06 19:44 52.38045 11.06137 23834 ft 412 kts 262°
2026-05-06 19:44 52.37744 11.01474 23831 ft 411 kts 262°
2026-05-06 19:44 52.37441 10.96820 23840 ft 411 kts 262°
2026-05-06 19:45 52.37159 10.92171 23832 ft 412 kts 263°
2026-05-06 19:45 52.36839 10.87518 23835 ft 413 kts 263°
2026-05-06 19:45 52.36558 10.82831 23836 ft 414 kts 262°
2026-05-06 19:45 52.36187 10.78160 23831 ft 414 kts 259°
2026-05-06 19:46 52.35648 10.73539 23844 ft 415 kts 257°
2026-05-06 19:46 52.35079 10.68913 23835 ft 416 kts 257°
2026-05-06 19:46 52.34503 10.64267 23831 ft 416 kts 257°
2026-05-06 19:46 52.33930 10.59627 23829 ft 416 kts 257°
2026-05-06 19:47 52.33360 10.54983 23827 ft 416 kts 257°
2026-05-06 19:47 52.32795 10.50350 23829 ft 416 kts 257°
2026-05-06 19:47 52.32231 10.45730 23829 ft 415 kts 257°
2026-05-06 19:47 52.31677 10.41095 23845 ft 414 kts 258°
2026-05-06 19:48 52.31112 10.36476 23838 ft 414 kts 257°
2026-05-06 19:48 52.30537 10.31938 23823 ft 413 kts 258°
2026-05-06 19:48 52.29962 10.27336 23837 ft 413 kts 258°
2026-05-06 19:48 52.29388 10.22674 23843 ft 414 kts 258°
2026-05-06 19:49 52.28828 10.18124 23838 ft 414 kts 258°
2026-05-06 19:49 52.28258 10.13512 23839 ft 414 kts 258°
2026-05-06 19:49 52.27677 10.08844 23847 ft 415 kts 258°
2026-05-06 19:49 52.27106 10.04282 23847 ft 415 kts 258°
2026-05-06 19:50 52.26527 9.99674 23848 ft 415 kts 258°
2026-05-06 19:50 52.25943 9.95048 23852 ft 416 kts 258°
2026-05-06 19:50 52.25504 9.90384 23853 ft 416 kts 266°
2026-05-06 19:50 52.25548 9.85667 23856 ft 417 kts 275°
2026-05-06 19:51 52.25931 9.80979 23848 ft 417 kts 279°
2026-05-06 19:51 52.26474 9.76317 23859 ft 418 kts 281°
2026-05-06 19:51 52.27088 9.71678 23862 ft 418 kts 282°
2026-05-06 19:51 52.27721 9.67047 23854 ft 418 kts 282°
2026-05-06 19:52 52.28350 9.62415 23859 ft 418 kts 282°
2026-05-06 19:52 52.28969 9.57767 23856 ft 418 kts 281°
2026-05-06 19:52 52.29573 9.53136 23856 ft 418 kts 281°
2026-05-06 19:52 52.30167 9.48500 23857 ft 417 kts 281°
2026-05-06 19:53 52.30755 9.43845 23855 ft 417 kts 281°
2026-05-06 19:53 52.31334 9.39220 23858 ft 416 kts 281°
2026-05-06 19:53 52.31911 9.34581 23864 ft 416 kts 281°
2026-05-06 19:53 52.32486 9.29945 23857 ft 416 kts 281°
2026-05-06 19:54 52.33059 9.25304 23856 ft 416 kts 281°
2026-05-06 19:54 52.33628 9.20671 23857 ft 416 kts 281°
2026-05-06 19:54 52.34197 9.16036 23858 ft 416 kts 281°
2026-05-06 19:54 52.34764 9.11396 23857 ft 416 kts 281°
2026-05-06 19:55 52.35329 9.06761 23859 ft 416 kts 281°
2026-05-06 19:55 52.35893 9.02113 23858 ft 416 kts 280°
2026-05-06 19:55 52.36455 8.97469 23857 ft 416 kts 280°
2026-05-06 19:55 52.37014 8.92832 23862 ft 417 kts 281°
2026-05-06 19:56 52.37575 8.88166 23861 ft 417 kts 281°
2026-05-06 19:56 52.38132 8.83508 23864 ft 418 kts 280°
2026-05-06 19:56 52.38691 8.78827 23865 ft 419 kts 280°
2026-05-06 19:56 52.39247 8.74147 23870 ft 419 kts 280°
2026-05-06 19:57 52.39802 8.69459 23872 ft 420 kts 280°
2026-05-06 19:57 52.40355 8.64776 23874 ft 420 kts 280°
2026-05-06 19:57 52.40908 8.60073 23877 ft 420 kts 280°
2026-05-06 19:57 52.41458 8.55378 23884 ft 420 kts 280°
2026-05-06 19:58 52.42007 8.50683 23884 ft 420 kts 280°
2026-05-06 19:58 52.42553 8.45987 23885 ft 420 kts 280°
2026-05-06 19:58 52.43093 8.41346 23880 ft 421 kts 280°
2026-05-06 19:58 52.43637 8.36635 23894 ft 421 kts 279°
2026-05-06 19:59 52.44186 8.31854 23891 ft 422 kts 279°
2026-05-06 19:59 52.44719 8.27200 23891 ft 422 kts 279°
2026-05-06 19:59 52.45259 8.22470 23889 ft 422 kts 279°
2026-05-06 19:59 52.45798 8.17730 23894 ft 422 kts 279°
2026-05-06 20:00 52.46332 8.13003 23894 ft 422 kts 279°
2026-05-06 20:00 52.46865 8.08273 23892 ft 422 kts 280°
2026-05-06 20:00 52.47411 8.03547 23895 ft 422 kts 279°
2026-05-06 20:00 52.47948 7.98817 23900 ft 422 kts 279°
2026-05-06 20:01 52.48473 7.94085 23914 ft 422 kts 279°
2026-05-06 20:01 52.48979 7.89333 23907 ft 422 kts 278°
2026-05-06 20:01 52.49488 7.84600 23900 ft 422 kts 279°
2026-05-06 20:01 52.50011 7.79866 23902 ft 422 kts 279°
2026-05-06 20:02 52.50539 7.75116 23908 ft 422 kts 279°
2026-05-06 20:02 52.51063 7.70382 23907 ft 422 kts 279°
2026-05-06 20:02 52.51587 7.65627 23906 ft 422 kts 279°
2026-05-06 20:02 52.52105 7.60889 23919 ft 422 kts 278°
2026-05-06 20:03 52.52621 7.56140 23919 ft 422 kts 278°
2026-05-06 20:03 52.53132 7.51405 23913 ft 422 kts 278°
2026-05-06 20:03 52.53644 7.46660 23939 ft 421 kts 278°
2026-05-06 20:03 52.54150 7.41929 23933 ft 419 kts 279°
2026-05-06 20:04 52.54654 7.37219 23935 ft 418 kts 278°
2026-05-06 20:04 52.55153 7.32520 23935 ft 417 kts 278°
2026-05-06 20:04 52.55647 7.27831 23932 ft 416 kts 278°
2026-05-06 20:04 52.56139 7.23151 23934 ft 415 kts 278°
2026-05-06 20:05 52.56628 7.18480 23937 ft 415 kts 278°
2026-05-06 20:05 52.57116 7.13800 23936 ft 415 kts 278°
2026-05-06 20:05 52.57601 7.09133 23932 ft 415 kts 278°
2026-05-06 20:05 52.58086 7.04451 23932 ft 415 kts 278°
2026-05-06 20:06 52.58570 6.99762 23937 ft 416 kts 278°
2026-05-06 20:06 52.58889 6.96664 23939 ft 416 kts 278°
2026-05-06 20:06 52.59363 6.92035 23933 ft 416 kts 278°
2026-05-06 20:06 52.59850 6.87265 23929 ft 416 kts 278°
2026-05-06 20:07 52.60327 6.82581 23930 ft 416 kts 278°
2026-05-06 20:07 52.60803 6.77877 23931 ft 416 kts 278°
2026-05-06 20:07 52.61276 6.73184 23930 ft 416 kts 278°
2026-05-06 20:07 52.61748 6.68489 23930 ft 416 kts 278°
2026-05-06 20:08 52.62219 6.63780 23933 ft 416 kts 278°
2026-05-06 20:08 52.62686 6.59089 23940 ft 416 kts 278°
2026-05-06 20:08 52.63152 6.54388 23942 ft 416 kts 278°
2026-05-06 20:08 52.63613 6.49682 23948 ft 416 kts 278°
2026-05-06 20:09 52.64058 6.44992 23939 ft 416 kts 278°
2026-05-06 20:09 52.64580 6.40297 23945 ft 416 kts 278°
2026-05-06 20:09 52.65039 6.35598 23938 ft 416 kts 277°
2026-05-06 20:09 52.65481 6.30899 23940 ft 416 kts 277°
2026-05-06 20:10 52.65925 6.26182 23941 ft 416 kts 277°
2026-05-06 20:10 52.66368 6.21488 23940 ft 416 kts 277°
2026-05-06 20:10 52.66815 6.16771 23939 ft 416 kts 277°
2026-05-06 20:10 52.67262 6.12058 23940 ft 416 kts 277°
2026-05-06 20:11 52.67707 6.07364 23939 ft 416 kts 277°
2026-05-06 20:11 52.68153 6.02646 23940 ft 416 kts 277°
2026-05-06 20:11 52.68598 5.97927 23948 ft 415 kts 277°
2026-05-06 20:11 52.69033 5.93289 23942 ft 415 kts 277°
2026-05-06 20:12 52.69477 5.88531 23936 ft 414 kts 277°
2026-05-06 20:12 52.69913 5.83851 23935 ft 413 kts 277°
2026-05-06 20:12 52.70346 5.79169 23944 ft 413 kts 277°
2026-05-06 20:12 52.70771 5.74555 23945 ft 412 kts 277°
2026-05-06 20:13 52.71205 5.69818 23945 ft 412 kts 277°
2026-05-06 20:13 52.71626 5.65211 23945 ft 412 kts 277°
2026-05-06 20:13 52.72051 5.60535 23958 ft 412 kts 277°
2026-05-06 20:13 52.72472 5.55877 23955 ft 412 kts 277°
2026-05-06 20:14 52.72895 5.51186 23963 ft 412 kts 277°
2026-05-06 20:14 52.73312 5.46525 23960 ft 412 kts 277°
2026-05-06 20:14 52.73730 5.41841 23959 ft 412 kts 277°
2026-05-06 20:14 52.74147 5.37155 23963 ft 412 kts 277°
2026-05-06 20:15 52.74560 5.32484 23964 ft 412 kts 277°
2026-05-06 20:15 52.74972 5.27800 23966 ft 412 kts 277°
2026-05-06 20:15 52.75382 5.23125 23978 ft 412 kts 277°
2026-05-06 20:15 52.75791 5.18433 23980 ft 412 kts 277°
2026-05-06 20:16 52.76196 5.13763 23982 ft 412 kts 277°
2026-05-06 20:16 52.76600 5.09085 23984 ft 412 kts 277°
2026-05-06 20:16 52.77003 5.04399 23985 ft 412 kts 277°
2026-05-06 20:16 52.77404 4.99713 23988 ft 412 kts 277°
2026-05-06 20:17 52.77802 4.95029 23987 ft 412 kts 277°
2026-05-06 20:17 52.78199 4.90346 23991 ft 412 kts 277°
2026-05-06 20:17 52.78594 4.85667 23991 ft 412 kts 277°
2026-05-06 20:17 52.78987 4.80984 23992 ft 411 kts 277°
2026-05-06 20:18 52.79378 4.76298 23993 ft 411 kts 277°
2026-05-06 20:18 52.79767 4.71621 23992 ft 411 kts 276°
2026-05-06 20:18 52.80155 4.66927 23975 ft 411 kts 276°
2026-05-06 20:18 52.80540 4.62251 23981 ft 411 kts 276°
2026-05-06 20:19 52.80923 4.57564 23981 ft 411 kts 276°
2026-05-06 20:19 52.81305 4.52884 23981 ft 411 kts 276°
2026-05-06 20:19 52.81685 4.48195 23979 ft 411 kts 276°
2026-05-06 20:19 52.82063 4.43507 23987 ft 411 kts 276°
2026-05-06 20:20 52.82439 4.38817 23983 ft 411 kts 276°
2026-05-06 20:20 52.82813 4.34138 23986 ft 411 kts 276°
2026-05-06 20:20 52.83185 4.29448 23987 ft 411 kts 276°
2026-05-06 20:20 52.83557 4.24749 23987 ft 411 kts 276°
2026-05-06 20:21 52.83925 4.20057 23994 ft 411 kts 276°
2026-05-06 20:21 52.84292 4.15368 23994 ft 411 kts 276°
2026-05-06 20:21 52.84657 4.10673 23995 ft 412 kts 276°
2026-05-06 20:21 52.85016 4.06039 23995 ft 411 kts 276°
2026-05-06 20:22 52.85377 4.01348 24008 ft 411 kts 276°
2026-05-06 20:22 52.85737 3.96655 24003 ft 411 kts 276°
2026-05-06 20:22 52.86093 3.91980 23997 ft 410 kts 276°
2026-05-06 20:22 52.86448 3.87292 23998 ft 410 kts 276°
2026-05-06 20:23 52.86801 3.82617 24002 ft 409 kts 276°
2026-05-06 20:23 52.87151 3.77943 24004 ft 409 kts 276°
2026-05-06 20:23 52.87499 3.73271 24003 ft 409 kts 276°
2026-05-06 20:23 52.87846 3.68601 24004 ft 409 kts 276°
2026-05-06 20:24 52.88191 3.63919 23997 ft 409 kts 276°
2026-05-06 20:24 52.88534 3.59245 23998 ft 409 kts 276°
2026-05-06 20:24 52.88875 3.54570 24001 ft 409 kts 276°
2026-05-06 20:24 52.89213 3.49902 24008 ft 410 kts 276°
2026-05-06 20:25 52.89552 3.45201 24002 ft 410 kts 276°
2026-05-06 20:25 52.89888 3.40519 24001 ft 410 kts 276°
2026-05-06 20:25 52.90223 3.35822 23998 ft 411 kts 276°
2026-05-06 20:25 52.90557 3.31112 23999 ft 411 kts 276°
2026-05-06 20:26 52.90889 3.26413 24001 ft 411 kts 276°
2026-05-06 20:26 52.91220 3.21706 24007 ft 411 kts 276°
2026-05-06 20:26 52.91548 3.17003 24006 ft 411 kts 276°
2026-05-06 20:26 52.91948 3.12321 24000 ft 411 kts 279°
2026-05-06 20:27 52.92521 3.07670 24005 ft 411 kts 281°
2026-05-06 20:27 52.93153 3.03046 24023 ft 411 kts 282°
2026-05-06 20:27 52.93809 2.98443 24024 ft 411 kts 282°
2026-05-06 20:27 52.94428 2.93809 24010 ft 412 kts 281°
2026-05-06 20:28 52.95043 2.89172 24013 ft 412 kts 282°
2026-05-06 20:28 52.95661 2.84533 24022 ft 412 kts 281°
2026-05-06 20:28 52.96275 2.79891 24019 ft 411 kts 281°
2026-05-06 20:28 52.96883 2.75251 24016 ft 412 kts 281°
2026-05-06 20:29 52.97486 2.70618 24022 ft 412 kts 281°
2026-05-06 20:29 52.98084 2.65983 24035 ft 412 kts 281°
2026-05-06 20:29 52.98683 2.61322 24030 ft 412 kts 281°
2026-05-06 20:29 52.99269 2.56741 24024 ft 412 kts 281°
2026-05-06 20:30 52.99861 2.52094 24023 ft 412 kts 281°
2026-05-06 20:30 53.01039 2.42805 24029 ft 411 kts 281°
2026-05-06 20:30 53.01626 2.38153 24030 ft 411 kts 281°
2026-05-06 20:31 53.02211 2.33503 24028 ft 412 kts 281°
2026-05-06 20:31 53.02795 2.28846 24035 ft 412 kts 281°
2026-05-06 20:31 53.03378 2.24185 24029 ft 412 kts 281°
2026-05-06 20:31 53.03958 2.19531 24032 ft 412 kts 281°
2026-05-06 20:32 53.04539 2.14859 24030 ft 412 kts 281°
2026-05-06 20:32 53.05115 2.10199 24029 ft 412 kts 281°
2026-05-06 20:32 53.05690 2.05538 24030 ft 412 kts 281°
2026-05-06 20:32 53.06264 2.00872 24034 ft 412 kts 281°
2026-05-06 20:33 53.06838 1.96195 24039 ft 412 kts 281°
2026-05-06 20:33 53.07410 1.91526 24036 ft 413 kts 281°
2026-05-06 20:33 53.07981 1.86844 24038 ft 412 kts 281°
2026-05-06 20:33 53.08547 1.82185 24035 ft 412 kts 281°
2026-05-06 20:34 53.09116 1.77494 24036 ft 412 kts 281°
2026-05-06 20:34 53.09679 1.72824 24039 ft 412 kts 281°
2026-05-06 20:34 53.10052 1.69722 24038 ft 412 kts 281°